Regional Weather Roundup
Issued by NWS

Home | Current Version | Previous Version | Text Only | Print | Product List | Glossary Off
Versions: 1 2 3 4 5 6 7 8 9 10 11 12 13 14 15 16 17 18 19 20 21 22 23 24 25 26 27

000
ASUS45 KCYS 180310
RWRWY

WYOMING REGIONAL WEATHER ROUNDUP
NATIONAL WEATHER SERVICE CHEYENNE WY
900 PM MDT THU APR 17 2014

NOTE:  "FAIR" INDICATES FEW OR NO CLOUDS BELOW 12,000 FEET
WITH NO SIGNIFICANT WEATHER AND/OR OBSTRUCTIONS TO VISIBILITY.

WYZ001-180400-
YELLOWSTONE NATIONAL PARK

CITY           SKY/WX    TMP DP  RH WIND       PRES   REMARKS
LK YELLOWSTONE   N/A     31  25  78 NW3       29.99R
W YELLOWSTONE  NOT AVBL

$$
WYZ002>013-054>058-071-098>099-180400-
NORTHERN WYOMING

CITY           SKY/WX    TMP DP  RH WIND       PRES   REMARKS
JACKSON        PTCLDY    45  25  45 SE3       29.94S
CODY           MOCLDY    54  25  32 SW9       29.85R
GREYBULL       MOCLDY    54  32  43 SE3       29.82R
WORLAND        PTCLDY    52  32  46 E10       29.81S
SHERIDAN       MOCLDY    45  37  73 SW3       29.82S
BUFFALO        MOCLDY    47  30  51 W8        29.86S
GILLETTE       CLEAR     48  34  58 S12       29.87S
HULETT         FAIR     N/A N/A N/A E8        29.92
NEWCASTLE      FAIR      46  34  61 E17       29.94

$$
WYZ014>020-022>026-101>103-180400-
CENTRAL WYOMING

CITY           SKY/WX    TMP DP  RH WIND       PRES   REMARKS
BIG PINEY      CLEAR     41  18  39 N8        29.99R
PINEDALE       PTCLDY    37  28  70 CALM      30.00S
DUBOIS         FAIR      43  18  36 NW6       29.94S
LANDER         CLOUDY    53  26  35 MISG      29.87S
RIVERTON       CLOUDY    52  20  28 W9        29.90R
CASPER         MOCLDY    50  28  42 SW6       29.90R
DOUGLAS        PTCLDY    47  33  58 S9        29.93R

$$
WYZ021-027>030-104>119-180400-
SOUTHERN WYOMING

CITY           SKY/WX    TMP DP  RH WIND       PRES   REMARKS
EVANSTON       PTCLDY    48  24  39 W9        30.00R
KEMMERER       CLEAR     45  23  42 W3        30.01R
FORT BRIDGER   FAIR      49  23  36 W7        30.02R
ROCK SPRINGS   PTCLDY    50  19  29 SW9       29.98R
DIXON          FAIR      45  25  46 N3        30.05R
RAWLINS        PTCLDY    48  18  30 SW12      29.99R
SARATOGA       FAIR      41  21  45 S9        30.03R
LARAMIE        MOCLDY    43  22  43 SW14      30.02S
CHEYENNE       CLEAR     47  26  44 S7        30.01R
TORRINGTON     CLEAR     49  35  58 E13       29.94R
PINE BLUFFS    FAIR      45  28  53 S6        30.00R

$$



USA.gov is the U.S. government's official web portal to all federal, state and local government web resources and services.